This is the latest recevied weather packets stored in our database for station/object SQ3RAX-13. If no packets are shown the sender has not sent any weather packets the latest 10 day(s).
| Time | Temp. | Humidity | Pressure | Rain* | Wind** | Luminosity | Snow |
|---|---|---|---|---|---|---|---|
| 1777887968 | 23.33° C | 47% | 1012 hPa | 0 mm | - | - | - |
| 1777887368 | 22.78° C | 46% | 1012 hPa | 0 mm | - | - | - |
| 1777886768 | 22.78° C | 46% | 1012 hPa | 0 mm | - | - | - |
| 1777886168 | 22.22° C | 48% | 1012 hPa | 0 mm | - | - | - |
| 1777885568 | 22.78° C | 49% | 1012 hPa | 0 mm | - | - | - |
| 1777884968 | 22.78° C | 49% | 1012 hPa | 0 mm | - | - | - |
| 1777884368 | 22.22° C | 48% | 1012 hPa | 0 mm | - | - | - |
| 1777883768 | 22.22° C | 48% | 1012 hPa | 0 mm | - | - | - |
| 1777883168 | 21.11° C | 47% | 1012 hPa | 0 mm | - | - | - |
| 1777882568 | 21.11° C | 48% | 1012 hPa | 0 mm | - | - | - |
| 1777881968 | 21.11° C | 48% | 1012 hPa | 0 mm | - | - | - |
| 1777881368 | 21.11° C | 50% | 1012 hPa | 0 mm | - | - | - |
| 1777880768 | 21.11° C | 50% | 1012 hPa | 0 mm | - | - | - |
| 1777880168 | 21.11° C | 50% | 1012 hPa | 0 mm | - | - | - |
| 1777879568 | 20° C | 49% | 1012 hPa | 0 mm | - | - | - |
| 1777878968 | 19.44° C | 50% | 1012 hPa | 0 mm | - | - | - |
| 1777878368 | 19.44° C | 54% | 1012 hPa | 0 mm | - | - | - |
| 1777877768 | 18.89° C | 58% | 1012 hPa | 0 mm | - | - | - |
| 1777877168 | 18.89° C | 58% | 1012 hPa | 0 mm | - | - | - |
| 1777876568 | 18.89° C | 58% | 1012 hPa | 0 mm | - | - | - |
| 1777875968 | 17.78° C | 53% | 1012 hPa | 0 mm | - | - | - |
| 1777875368 | 17.22° C | 54% | 1011 hPa | 0 mm | - | - | - |
| 1777874768 | 17.22° C | 54% | 1011 hPa | 0 mm | - | - | - |
| 1777874168 | 16.67° C | 63% | 1012 hPa | 0 mm | - | - | - |
| 1777873568 | 16.67° C | 65% | 1012 hPa | 0 mm | - | - | - |
* Rain latest hour (hover to see other rain measurements)
** Current wind speed in m/s (hover to see current wind gust speed)